Theta_e
324 326 328 328 330 327 324 324 322 322 324 322 321 320 324 334 323 316 339 359 338 333 343 338 335 346 353 351 344 339 338 337 338 341 342 343 343 344 344 344 345 345 345 346 347 348 349 350 350 351 351 351 352 352 352 353 354 355 356 356 356 357 357 357 356 355 354 352 351 349 348 345 342 342 342 342 342 343 343 343 342 341 341 341 343 345 347
324 325 326 327 329 328 325 325 324 323 324 323 321 323 326 328 326 325 340 354 348 343 346 342 336 340 344 343 337 335 338 338 338 340 341 342 343 343 344 344 344 344 345 345 345 347 348 348 350 350 351 351 352 351 352 353 353 355 355 356 356 356 356 356 355 356 355 354 353 352 351 349 345 343 343 343 343 343 343 343 342 342 343 344 345 345 346
322 324 326 327 326 328 326 325 327 324 323 324 322 323 325 325 327 329 333 339 341 344 353 352 337 332 336 340 338 336 339 342 342 341 341 342 343 343 343 343 344 344 345 345 344 346 347 347 349 349 350 350 351 351 352 352 353 354 355 355 356 356 356 356 356 357 356 355 355 354 353 351 348 346 346 346 345 344 343 343 343 344 346 346 347 347 348
320 322 325 324 324 325 323 322 327 326 323 323 323 324 328 327 329 333 330 329 332 339 348 348 340 341 347 345 341 338 339 344 344 341 342 342 342 343 344 343 344 345 345 345 345 345 346 346 347 348 348 349 350 351 351 351 352 354 354 355 355 354 355 356 357 357 355 355 356 355 354 353 351 350 349 349 349 347 345 345 344 345 347 348 348 349 350
322 322 323 324 323 321 319 321 325 327 327 327 324 325 328 326 330 332 326 327 337 343 341 338 339 346 351 347 340 335 338 345 345 342 343 344 343 343 344 344 345 345 345 345 345 345 345 345 345 346 347 348 349 349 349 350 352 354 354 354 354 354 355 356 357 356 355 356 356 355 354 354 353 354 353 353 352 350 347 345 346 348 348 349 350 350 351
325 326 325 324 320 318 321 327 329 329 330 330 328 329 331 332 333 331 327 333 342 342 339 338 337 338 340 341 338 335 338 344 346 345 343 343 345 344 343 344 344 345 345 345 344 343 342 342 342 344 346 347 347 348 350 352 353 353 354 354 354 354 355 356 357 356 356 356 356 355 355 355 356 356 355 355 354 352 350 349 349 350 350 350 350 351 351
329 329 326 322 321 325 333 335 331 330 330 331 338 345 348 350 348 341 339 342 346 346 342 336 333 334 337 341 343 342 340 340 343 347 346 344 344 343 344 346 345 345 345 344 344 342 340 340 341 343 347 348 348 349 352 353 354 354 354 354 354 355 355 356 357 357 356 356 356 357 357 357 357 357 355 355 355 354 354 353 351 351 350 351 351 351 352
330 328 324 323 330 341 346 339 334 335 332 335 346 352 352 352 352 351 348 347 349 353 346 335 332 337 340 344 346 344 342 341 341 343 345 348 347 345 345 345 344 345 345 343 341 340 341 341 341 343 344 346 348 351 353 354 354 354 354 354 354 355 355 356 357 357 357 356 357 358 359 359 358 357 356 355 355 354 355 354 353 353 353 352 352 352 353
331 328 324 327 331 335 340 341 340 341 337 334 347 353 349 348 350 350 350 354 356 356 350 339 333 335 345 351 350 348 345 343 342 341 341 343 345 347 349 347 346 346 345 343 342 341 343 342 340 342 343 344 346 350 352 354 354 354 355 355 355 355 356 356 357 357 357 357 357 359 360 360 360 358 358 356 355 354 354 354 354 354 354 354 354 355 355
333 330 326 326 325 328 340 345 341 342 340 339 348 355 350 349 350 348 350 356 358 361 362 349 335 342 364 362 351 350 348 343 343 343 341 340 338 339 342 344 345 345 343 342 342 342 343 342 340 342 344 344 345 347 350 353 354 354 355 355 355 355 356 356 357 358 358 358 358 359 361 361 360 359 358 357 355 354 353 353 353 353 354 355 356 357 357
329 328 327 326 325 334 351 352 339 336 339 342 350 355 350 351 350 345 347 352 352 356 361 354 348 365 382 362 349 350 350 346 346 345 344 345 344 341 340 339 339 340 340 341 341 343 344 343 342 343 346 347 348 348 350 352 353 355 356 355 355 355 355 356 357 358 359 359 359 360 361 361 360 360 359 357 356 354 354 353 353 353 355 357 358 358 359
327 328 329 328 330 343 356 351 337 334 337 339 345 347 348 352 348 343 343 346 347 347 347 349 357 371 372 359 351 351 348 346 350 350 350 350 348 347 346 342 338 337 337 337 339 344 345 345 345 346 346 350 352 352 351 352 354 355 354 353 353 354 355 356 357 358 359 360 360 360 360 361 360 360 359 358 357 356 356 355 355 356 357 358 359 359 359
329 328 326 326 333 347 355 346 337 333 332 333 336 341 348 349 346 345 345 345 346 346 346 350 355 356 355 353 351 350 346 344 345 349 354 356 353 351 350 347 343 340 337 335 336 339 341 344 348 350 351 352 352 350 351 354 354 352 350 350 352 354 356 358 358 359 360 360 361 361 361 360 361 360 360 359 359 358 357 357 357 358 358 359 360 360 360
335 335 332 330 334 343 344 338 336 336 335 336 337 341 348 347 347 350 349 347 348 349 347 349 350 349 348 350 349 349 348 345 342 344 351 356 357 356 354 353 349 343 338 337 336 337 339 339 341 346 351 354 353 351 352 352 348 343 345 349 353 355 357 358 359 359 360 360 361 362 362 361 361 361 361 360 360 359 358 358 359 359 360 360 361 360 360
338 342 338 332 333 338 337 336 342 348 348 344 342 345 348 348 349 350 348 347 348 348 347 348 348 348 348 348 348 348 347 346 345 343 345 350 355 358 359 359 358 355 352 348 343 340 340 341 341 341 344 350 354 357 358 354 349 348 349 352 355 356 358 359 359 359 359 360 362 363 363 362 361 361 362 361 361 361 360 360 361 361 361 362 361 361 360
340 343 341 335 334 335 336 339 345 347 345 344 345 347 347 347 347 346 346 347 346 346 347 347 346 347 347 346 347 347 347 348 347 344 342 344 349 354 359 361 361 361 363 363 357 349 344 344 346 344 343 347 352 356 359 358 358 359 359 358 359 359 359 359 358 358 359 360 362 363 363 362 362 362 362 362 362 361 361 361 362 362 362 362 361 361 360
337 339 338 337 335 335 337 341 344 342 343 345 346 346 345 344 345 345 345 345 345 345 346 345 345 347 346 347 348 347 347 349 349 348 347 345 345 349 354 360 362 362 362 365 365 362 357 354 353 352 350 351 353 355 356 358 360 363 363 362 361 361 360 359 359 359 360 362 363 364 363 362 362 363 363 362 362 362 362 363 363 362 362 362 360 360 359
336 337 335 334 334 335 336 339 341 341 342 344 343 343 342 341 342 342 342 343 344 344 344 344 344 344 344 345 347 347 347 347 348 349 349 348 348 348 349 355 359 360 361 362 362 363 364 364 365 363 361 360 360 361 360 360 361 362 362 363 363 362 362 362 361 362 363 365 366 365 363 362 363 363 363 363 362 363 363 363 362 362 360 359 359 358 357
337 339 337 333 334 336 335 336 338 338 337 338 339 339 338 337 338 338 339 340 341 342 343 343 342 342 343 344 345 346 346 347 348 349 350 350 350 349 350 351 353 355 359 360 359 359 360 362 365 367 367 367 367 366 365 365 364 364 363 363 364 364 365 365 365 366 366 366 367 366 365 365 365 364 364 364 363 363 362 360 359 359 358 357 357 356 356
337 337 335 333 334 335 333 333 334 334 333 334 335 335 335 335 334 334 336 338 339 339 341 342 342 341 341 341 342 343 344 345 347 348 349 350 351 351 352 353 353 354 356 357 357 357 357 358 360 362 365 367 367 367 366 365 364 365 365 365 366 367 368 367 367 367 367 367 367 367 366 366 366 365 365 363 362 359 356 354 355 355 355 355 355 354 354
337 335 334 333 335 336 334 332 332 332 331 331 331 332 333 333 333 334 335 336 338 338 338 340 341 340 338 338 340 341 341 343 344 345 347 348 349 350 351 352 353 354 356 357 357 358 357 356 357 357 360 362 364 365 364 364 365 365 366 368 367 366 366 366 363 363 365 368 368 367 366 365 364 363 361 358 356 354 352 352 353 354 354 354 354 354 353
339 335 333 334 336 336 334 332 330 329 329 329 329 329 330 331 332 335 335 335 336 338 338 339 339 338 337 338 340 340 341 342 343 344 345 345 346 347 348 349 350 352 354 356 357 357 357 356 356 356 358 360 361 361 360 361 363 363 365 366 362 356 356 358 356 356 360 363 364 364 364 363 361 358 356 354 353 352 353 353 353 353 352 352 352 352 351
337 333 332 333 334 334 332 331 329 328 327 326 326 325 326 327 329 333 336 336 336 336 337 338 339 339 339 340 341 341 341 341 342 343 344 344 344 345 345 346 347 348 349 351 354 356 357 357 357 357 357 358 360 361 362 363 365 365 365 363 356 350 349 350 350 352 355 358 359 360 359 358 357 354 353 353 353 352 353 353 353 352 352 351 350 348 347
334 333 331 331 331 331 330 329 329 328 327 327 325 323 324 324 325 328 332 333 333 334 336 338 340 340 341 341 342 342 341 341 342 343 343 344 344 345 345 345 346 346 346 347 348 350 351 353 353 353 354 354 354 355 358 362 363 361 359 356 351 346 344 343 346 350 353 354 355 356 355 354 354 353 352 353 353 353 353 352 351 350 349 348 347 346 345
334 333 331 329 329 329 329 328 328 328 329 329 327 324 322 322 323 324 325 326 327 328 331 334 337 340 340 340 341 341 341 342 342 343 343 344 344 344 345 345 345 345 345 345 346 347 348 349 349 349 350 351 350 348 350 354 355 353 350 347 345 344 344 345 348 352 354 354 353 353 352 352 353 352 352 352 352 351 350 349 348 347 346 345 345 345 344
333 332 330 329 328 327 327 328 328 328 329 329 327 324 323 323 324 324 323 323 323 324 325 328 331 334 337 338 339 340 340 341 343 344 344 344 344 343 344 345 346 346 346 346 347 348 348 349 348 348 348 348 347 346 346 348 349 347 346 346 347 348 349 351 352 353 352 352 351 351 350 351 351 351 351 351 350 347 346 345 345 346 345 344 344 343 342
332 331 330 329 328 327 327 327 328 329 329 329 328 326 324 323 324 324 323 324 324 323 324 324 325 326 329 331 334 336 339 340 341 342 343 344 344 343 343 344 345 345 346 346 346 347 348 348 348 349 349 348 346 346 347 348 349 348 348 349 350 351 351 351 351 350 349 348 348 349 347 345 345 345 346 346 345 344 343 343 344 344 344 343 343 341 339
330 331 331 329 328 327 327 327 327 327 326 326 327 327 325 324 324 324 324 324 324 324 324 325 325 324 324 324 326 330 334 336 337 337 339 341 342 343 344 345 345 345 345 345 344 345 346 346 346 348 349 348 348 348 348 349 349 349 350 350 350 349 348 347 346 347 347 346 346 346 345 343 341 340 341 343 342 343 343 343 342 342 341 341 341 338 337
326 328 329 329 327 328 328 328 328 327 324 323 323 323 323 323 323 324 324 325 325 325 325 325 325 325 325 324 324 325 327 329 330 333 336 338 339 341 343 344 344 345 345 344 344 344 344 344 345 345 346 347 349 349 349 349 349 347 346 345 344 343 343 341 341 343 344 344 345 345 344 343 342 340 340 341 342 342 343 342 341 340 340 340 339 337 335
325 326 327 327 327 327 327 327 328 327 325 324 324 323 323 322 323 323 324 324 325 326 326 325 325 325 325 325 325 325 325 325 325 326 330 333 334 337 339 341 343 344 344 343 343 344 344 344 344 344 344 346 347 345 344 345 348 348 346 344 343 342 341 340 340 340 341 342 343 342 342 342 342 341 341 341 341 340 340 340 340 339 340 339 338 336 334
322 324 325 326 325 325 326 326 326 327 326 326 326 326 326 325 325 324 323 323 324 325 325 325 325 325 324 324 323 323 324 324 324 325 326 326 327 329 333 336 339 341 341 341 341 342 342 343 343 343 343 344 345 343 341 342 344 346 346 344 342 340 338 337 337 338 339 339 339 339 340 341 341 340 340 339 339 339 338 338 338 338 339 339 337 335 334
320 320 322 324 324 324 325 324 325 325 325 326 326 326 326 327 327 327 326 325 324 325 325 325 325 325 324 322 321 321 322 323 324 324 324 323 323 324 329 334 337 339 340 340 339 339 339 339 341 342 342 342 342 342 342 343 344 345 344 342 340 337 335 335 334 334 335 336 337 338 338 338 337 337 336 336 337 337 337 336 336 337 337 337 336 334 333
322 322 322 322 323 323 324 323 323 324 324 325 325 325 325 326 327 327 327 327 326 326 326 326 325 325 324 324 323 321 320 322 322 322 322 323 323 324 325 328 332 334 338 339 339 338 338 337 338 340 341 341 341 340 340 341 342 343 342 341 339 337 336 335 334 332 332 334 336 336 336 334 333 333 333 333 334 334 333 333 333 333 334 336 336 334 333
324 324 323 322 322 323 324 323 323 323 324 324 325 325 325 325 326 326 327 327 328 328 328 328 328 327 327 327 326 323 322 322 322 322 320 320 321 322 324 324 324 326 331 335 336 336 336 336 336 337 337 338 339 339 340 340 340 341 341 340 339 339 339 338 336 335 333 333 334 334 332 330 330 331 331 331 331 331 330 329 330 331 332 334 334 333 333
324 324 324 323 323 324 324 323 323 323 324 324 324 324 325 325 326 326 327 327 327 328 328 328 329 328 328 329 329 327 325 323 323 323 323 322 321 322 323 324 323 323 325 328 331 332 332 332 331 331 334 335 334 334 336 338 339 339 339 339 337 337 338 337 338 337 334 331 331 333 333 330 330 331 331 330 329 330 330 330 330 331 330 330 331 332 333
323 323 324 324 324 324 324 324 324 324 324 325 325 325 325 325 325 325 326 326 327 327 327 328 328 328 328 328 328 328 328 327 326 326 328 328 328 327 327 326 326 325 323 323 323 323 324 327 327 326 329 333 333 332 333 334 335 337 338 335 331 329 330 332 336 338 336 330 330 333 335 333 331 331 330 328 329 331 332 332 332 332 330 329 330 331 332
323 323 323 324 324 324 324 324 324 325 325 325 325 325 325 325 325 325 325 325 325 326 326 326 327 327 328 328 328 328 329 328 328 328 328 328 329 330 329 328 328 327 325 324 322 319 318 320 322 322 325 330 331 330 328 328 330 334 336 333 331 331 332 332 334 336 335 332 331 334 336 335 333 333 331 331 331 332 332 333 333 332 330 329 329 329 329
322 323 323 324 324 324 324 325 325 324 324 324 324 324 324 324 324 324 325 325 325 325 325 326 326 327 327 327 328 328 329 329 328 328 328 328 328 328 329 328 328 329 329 330 329 326 324 321 319 320 326 332 333 330 330 330 332 334 334 333 333 335 335 333 332 334 336 335 334 336 337 336 335 334 334 334 333 333 333 333 333 331 330 329 329 329 328
322 322 323 323 323 323 323 323 324 324 323 323 323 323 323 323 323 324 324 324 324 325 325 325 326 326 326 326 327 327 328 328 328 328 328 328 328 328 328 328 329 329 330 330 331 331 331 329 325 323 328 332 333 332 333 333 333 333 333 332 333 334 333 332 332 334 336 335 336 337 336 335 334 334 334 334 334 334 333 333 332 331 330 330 329 329 329
321 321 321 322 322 322 321 321 321 321 320 320 320 320 321 321 322 322 323 324 324 324 324 325 325 324 324 325 326 327 326 325 325 325 325 326 327 327 327 327 327 327 328 329 330 330 331 331 330 329 330 332 332 332 333 333 334 334 333 333 333 333 333 332 333 333 333 334 335 335 334 333 333 333 334 334 334 334 333 332 331 330 330 329 328 328 328
320 319 319 319 320 321 321 320 320 319 319 318 318 318 319 319 320 320 321 322 323 323 323 324 324 323 322 321 322 321 320 318 318 319 320 322 324 325 326 326 326 326 325 326 327 328 328 329 330 330 331 331 331 331 331 332 333 333 333 332 332 333 333 333 333 333 333 333 333 332 332 332 331 331 332 333 332 332 331 330 330 329 328 327 326 326 325
319 319 318 318 318 318 319 319 318 318 318 318 318 318 317 317 318 319 319 320 321 322 322 322 322 322 321 320 319 317 316 315 316 317 318 320 321 322 322 322 322 321 321 321 322 323 325 327 328 329 329 329 329 329 330 330 331 331 332 332 332 332 332 333 333 332 332 332 332 331 330 330 329 329 329 330 330 329 329 329 328 327 326 326 326 325 324
317 317 318 318 317 317 317 317 317 317 317 317 317 318 317 316 317 317 317 318 319 320 321 321 321 320 320 320 320 319 318 317 317 317 318 318 319 319 319 319 318 317 317 318 318 318 321 324 326 327 327 327 327 328 328 328 329 329 330 331 332 332 332 332 331 331 331 331 330 329 329 329 328 327 328 329 328 327 328 327 326 325 325 325 324 324 324
317 317 317 317 317 317 317 317 316 316 316 316 316 317 317 316 316 317 317 317 317 318 319 320 319 318 318 319 320 320 319 318 317 317 317 317 317 318 318 318 317 317 317 317 317 316 317 319 322 323 324 325 326 326 327 327 327 327 328 328 329 330 329 329 330 331 331 330 329 329 328 328 328 327 327 326 326 326 326 326 325 325 325 324 323 323 322
318 317 317 317 317 317 317 316 316 316 316 316 316 317 317 316 317 317 316 316 316 316 317 317 317 317 317 318 319 318 318 318 317 317 316 316 316 316 317 317 316 317 317 318 318 318 317 317 318 319 321 322 323 324 325 325 325 325 325 326 326 327 327 327 328 328 328 328 328 327 327 327 327 327 326 324 324 325 325 325 324 324 323 323 322 322 321
318 317 317 317 317 316 316 317 316 316 316 316 316 317 317 316 316 316 316 316 316 316 316 316 316 316 316 317 317 317 318 317 317 317 317 316 315 315 315 316 316 316 316 318 319 320 319 318 318 319 319 320 321 323 323 324 324 324 325 325 325 325 325 325 325 325 325 325 325 325 325 325 325 325 325 324 323 323 323 323 322 322 322 322 321 320 319
317 317 317 316 316 316 316 316 316 316 316 316 316 316 316 316 316 316 316 316 316 316 316 316 316 315 315 316 316 316 316 316 315 315 315 315 315 314 314 314 315 315 316 317 318 320 320 319 319 319 319 319 319 320 321 321 322 322 323 323 323 324 324 324 324 323 323 323 324 323 323 323 324 324 324 323 323 323 322 321 320 320 320 320 319 318 317
316 316 316 316 316 316 316 316 316 316 315 315 316 316 316 316 316 316 315 316 315 315 315 315 315 315 315 315 315 315 315 315 315 314 314 314 314 314 314 314 314 314 314 315 316 317 318 318 318 319 319 319 319 319 320 320 320 320 321 322 322 322 323 323 323 322 322 322 323 322 322 321 322 323 322 321 321 322 322 320 319 319 319 319 318 317 317
316 315 315 315 315 315 315 315 315 315 314 314 315 315 315 315 315 315 315 315 315 314 314 314 314 314 314 315 314 314 314 315 314 314 314 314 314 314 313 314 314 314 314 314 315 315 315 316 316 317 318 318 318 319 319 319 319 319 320 321 321 321 321 322 322 322 322 322 322 322 321 321 321 321 320 319 319 320 320 319 319 318 318 318 318 317 317
314 314 314 313 313 313 314 314 313 313 312 312 312 312 312 313 313 313 313 313 313 313 313 313 313 313 313 313 313 312 312 312 313 313 313 313 313 313 313 313 313 313 314 314 314 315 315 315 315 316 317 317 317 318 318 319 319 319 319 319 320 320 320 320 320 321 321 320 320 320 320 320 320 320 320 320 320 320 319 319 318 318 318 317 317 317 317
313 313 313 312 312 312 312 312 311 311 311 311 310 310 310 310 311 311 311 311 311 311 311 312 312 312 312 312 311 311 311 310 311 311 311 311 311 312 312 312 312 313 313 313 313 313 314 314 314 315 316 316 316 317 317 317 318 318 318 318 318 318 319 319 319 319 319 319 319 319 319 319 319 319 319 319 319 319 319 319 318 318 318 317 317 317 317
312 312 312 311 311 311 311 311 310 310 309 309 309 309 309 309 310 310 310 310 310 310 310 310 311 311 311 311 310 310 310 310 309 309 309 308 308 308 309 310 310 311 310 310 310 310 310 311 312 313 314 314 315 315 315 316 316 316 317 317 317 317 318 318 318 318 318 318 319 319 319 318 318 318 318 318 318 318 318 317 317 317 317 317 317 316 315
Wind_Speed
17 16 15 14 8 7 12 14 14 16 18 18 17 14 10 10 8 8 6 9 9 9 8 9 12 10 7 9 13 17 24 30 33 36 39 38 37 38 40 41 43 45 45 48 50 50 51 52 53 53 54 54 55 55 54 54 54 54 54 53 53 52 52 52 52 50 47 46 45 44 44 46 48 48 48 48 47 46 45 45 44 43 42 42 41 41 41
18 17 18 18 12 7 9 13 14 16 18 20 20 16 12 12 11 8 9 11 10 8 9 9 11 11 8 9 13 13 18 26 30 30 32 36 38 40 43 43 44 46 47 48 50 50 50 51 52 52 53 54 55 55 55 54 54 55 54 53 53 53 53 53 52 50 48 47 46 46 46 47 48 49 49 48 48 47 46 45 44 44 43 43 43 42 42
16 18 19 19 17 11 8 10 12 14 17 18 18 15 10 8 7 6 9 11 9 7 7 7 9 11 7 5 8 11 14 20 25 26 28 32 37 39 42 45 45 47 48 50 50 50 50 50 51 52 52 53 54 55 54 54 55 55 54 54 54 54 54 53 51 50 48 48 48 47 47 47 48 49 49 49 49 48 47 47 45 45 45 44 44 43 43
12 15 19 21 20 13 10 11 11 11 13 14 13 12 10 8 7 7 8 8 7 7 8 7 6 7 7 5 6 9 13 16 20 24 28 32 36 39 41 41 43 45 47 49 50 49 49 48 49 51 52 53 54 54 54 55 56 55 55 55 55 55 54 53 51 50 49 48 49 48 48 48 49 49 50 50 50 49 48 47 47 46 46 46 45 44 44
9 13 18 19 16 12 11 11 11 9 9 8 7 8 10 11 10 9 7 8 9 8 8 8 7 7 7 8 8 9 13 19 21 23 29 33 36 40 41 41 41 43 46 49 50 49 46 45 47 49 51 53 54 53 54 55 56 56 56 56 56 55 54 53 52 50 49 49 49 49 49 49 49 49 50 50 50 50 49 48 47 47 46 46 46 45 45
6 12 14 12 12 11 9 7 12 12 10 9 6 3 6 7 6 5 5 7 9 9 8 9 9 7 2 2 3 3 7 20 26 26 29 32 34 38 42 43 44 45 46 48 49 46 44 43 44 47 50 51 51 50 52 54 56 57 57 57 57 56 54 54 52 51 50 50 50 50 49 49 48 49 50 50 50 50 49 48 47 47 47 47 46 46 46
5 7 12 10 11 10 6 4 10 13 13 13 9 5 5 6 5 2 0 1 5 8 9 10 10 10 18 23 25 24 16 4 15 22 26 30 33 37 39 40 42 46 47 48 47 46 45 45 44 46 48 49 49 50 53 55 56 57 57 57 57 56 55 54 53 51 50 50 50 50 49 49 49 49 50 50 50 49 49 48 48 48 48 47 47 47 47
5 3 9 10 9 5 4 3 2 6 10 12 11 8 7 8 7 3 3 2 4 3 4 9 15 24 32 31 28 28 25 17 6 5 14 21 27 33 35 38 41 46 48 48 46 46 48 48 46 46 46 47 48 51 54 54 55 56 56 56 56 56 55 54 54 53 52 51 50 50 49 49 49 49 49 50 50 49 49 49 49 48 48 47 47 47 46
3 3 4 4 3 2 4 3 0 3 6 11 11 7 4 7 7 3 3 5 4 4 4 2 16 26 27 20 18 23 24 20 17 11 3 6 14 20 25 32 38 42 46 47 46 48 50 50 49 47 46 47 49 51 53 54 54 54 54 55 55 55 56 55 55 54 53 52 51 50 50 50 49 49 49 49 49 49 49 49 49 49 49 48 47 46 45
2 2 3 3 5 4 3 4 4 1 5 11 13 9 2 6 8 5 2 6 6 5 6 4 7 14 14 7 7 16 20 18 18 16 14 9 3 7 13 23 31 36 41 43 45 47 49 49 49 47 47 48 50 51 52 53 53 53 54 54 55 55 55 56 56 55 54 53 52 51 51 51 50 49 48 47 47 47 48 49 49 48 48 47 46 45 44
4 3 3 3 4 5 6 5 2 3 10 12 11 9 1 5 6 6 3 7 7 6 7 8 6 7 7 2 2 11 16 17 16 15 14 13 10 7 5 10 17 23 28 33 38 43 46 47 47 46 46 47 48 49 51 51 52 53 54 54 54 55 55 55 56 56 55 55 53 53 52 51 50 49 48 46 45 45 46 47 47 46 46 46 45 44 43
6 4 3 2 2 3 5 6 4 7 11 10 10 5 4 4 3 5 5 8 7 6 10 11 9 6 4 4 1 8 13 14 14 13 11 10 9 8 7 5 4 6 11 17 25 33 39 44 47 48 46 45 46 48 49 51 52 53 54 53 53 53 54 55 56 56 56 56 55 54 54 52 50 49 47 46 45 45 45 44 44 45 45 45 44 43 42
7 6 4 2 1 2 3 4 3 7 11 8 4 5 5 3 1 5 10 11 11 13 15 13 8 6 6 5 4 9 12 11 12 12 10 7 5 4 4 4 1 2 5 8 12 17 24 31 41 47 47 47 48 49 50 52 53 52 52 52 52 53 54 55 55 56 56 56 56 56 54 52 51 49 47 46 45 44 42 42 43 44 44 43 42 42 41
4 3 3 2 1 1 2 3 2 6 6 4 5 5 8 10 9 11 15 14 15 19 19 16 13 10 10 10 10 12 12 12 12 11 8 7 5 3 3 2 1 2 5 9 9 9 12 17 27 36 42 45 48 50 52 53 53 51 51 52 53 54 55 56 56 56 56 56 56 55 54 52 51 49 47 46 44 41 40 41 42 42 42 41 41 40 39
4 2 2 4 3 5 13 11 4 5 2 8 11 11 13 15 16 17 17 16 16 18 19 18 15 13 13 14 13 12 12 13 12 11 9 8 8 6 5 4 3 3 4 7 10 10 10 11 15 23 33 41 45 47 50 52 51 51 52 53 54 54 55 56 56 56 56 56 55 55 54 53 51 49 48 46 42 39 39 40 40 41 41 41 40 39 37
3 3 4 3 1 13 21 12 2 5 8 20 25 19 13 14 18 20 19 17 16 17 18 18 16 14 14 14 13 13 13 13 12 11 10 10 10 9 9 7 6 5 5 6 9 12 13 12 12 15 23 34 42 45 47 49 48 47 49 51 52 53 54 55 55 54 54 54 55 55 53 51 50 49 46 43 40 39 39 40 40 41 41 40 39 37 35
3 2 3 6 9 17 18 9 14 19 22 28 31 27 20 18 19 21 20 18 16 17 18 18 17 15 13 12 13 13 13 13 13 12 11 11 10 9 9 9 7 5 4 5 7 9 10 11 12 13 17 26 35 42 46 47 46 43 43 45 48 50 52 53 53 53 52 52 53 52 50 49 50 48 44 40 39 40 41 40 40 40 40 39 37 34 32
4 4 4 11 14 16 23 23 21 26 29 29 30 32 28 22 22 24 24 21 19 18 19 20 19 15 12 12 12 12 12 12 12 11 10 9 9 8 7 7 7 5 4 4 4 5 6 8 10 12 16 21 29 36 40 42 42 41 40 40 43 45 47 49 50 50 51 51 50 49 48 48 47 44 41 40 41 41 40 39 38 38 37 35 33 31 30
4 2 5 13 13 13 22 26 23 23 26 29 31 33 30 26 26 27 25 25 24 23 23 24 23 18 16 16 15 14 12 11 11 10 9 8 8 8 8 8 8 7 7 8 7 6 6 8 11 14 17 20 24 28 30 31 33 35 36 38 40 42 43 44 46 47 49 49 49 48 47 46 44 42 41 41 40 39 38 37 36 34 32 31 29 28 28
2 2 6 13 14 17 27 29 24 21 21 26 31 32 31 29 29 28 27 27 27 26 25 25 25 23 21 20 19 17 15 12 10 10 9 8 7 7 8 8 8 9 9 10 10 9 8 8 11 15 18 21 23 25 27 28 28 30 31 34 37 40 40 41 42 45 48 49 50 49 48 46 44 42 40 38 36 35 34 33 32 30 29 28 27 26 26
2 3 6 11 10 16 25 28 25 20 18 21 28 31 32 32 32 31 30 29 28 28 28 26 25 27 26 23 22 21 19 16 14 11 9 8 6 5 5 6 7 9 9 9 10 9 8 9 11 14 16 19 23 26 28 30 32 32 33 34 35 37 40 42 43 45 48 51 51 50 48 45 41 38 35 32 31 30 28 26 26 26 25 24 24 23 21
1 1 4 8 6 6 14 21 22 19 16 18 23 27 29 32 33 34 34 33 31 31 29 27 28 29 29 26 25 25 24 22 19 17 14 12 10 7 6 6 6 6 5 5 7 7 7 8 12 15 16 17 21 25 29 31 32 34 36 37 34 32 35 41 43 44 45 47 48 47 44 41 39 35 31 28 26 25 24 23 22 21 20 19 18 17 17
2 1 3 9 9 6 10 18 21 18 15 16 20 23 25 27 29 32 35 36 34 33 31 30 30 31 30 28 27 28 28 25 23 22 21 19 17 14 10 9 9 8 6 3 4 5 6 8 11 15 17 16 18 23 29 32 32 34 39 41 38 33 32 35 36 36 38 39 40 39 37 35 34 33 30 27 25 23 22 21 20 19 17 16 15 14 14
3 3 10 14 13 9 12 19 21 18 15 15 18 21 23 24 26 29 32 33 33 32 31 30 30 31 31 30 29 30 30 28 26 26 26 25 24 21 18 16 17 16 13 9 4 0 3 6 9 10 9 9 12 19 25 30 33 35 38 39 38 34 31 30 29 31 33 33 33 33 32 29 28 29 29 28 27 24 22 20 19 18 18 17 16 15 14
2 7 14 18 17 15 16 20 20 17 15 15 16 19 21 24 26 28 29 29 30 30 30 29 27 27 29 30 30 30 30 29 28 26 26 27 27 26 24 22 21 20 19 17 13 8 3 2 4 4 6 7 9 15 21 24 28 31 32 31 30 30 31 32 33 33 32 30 27 27 26 25 25 25 26 27 27 25 23 21 19 18 18 17 17 16 15
7 12 17 20 20 19 18 19 18 14 12 12 15 17 19 21 24 26 26 27 27 28 28 28 26 24 25 27 28 29 30 30 27 25 24 25 26 28 28 25 23 21 20 21 21 17 11 9 8 8 7 7 10 18 24 23 23 26 27 27 28 30 33 34 33 31 28 24 23 23 22 21 21 20 21 21 22 22 23 22 21 19 18 17 17 17 17
12 15 15 15 16 17 19 21 20 14 10 9 11 14 15 17 19 22 23 24 24 24 25 24 23 23 22 22 24 26 28 30 29 28 27 25 25 26 26 25 25 24 22 23 25 23 21 20 20 19 16 13 13 18 21 20 20 23 25 26 28 28 27 26 25 25 23 22 22 22 22 21 19 18 18 17 16 17 20 22 23 22 20 18 17 18 19
7 9 9 8 13 17 21 24 22 17 12 10 10 11 12 13 16 19 20 21 21 21 21 19 19 19 20 19 19 21 23 25 28 30 30 27 24 23 23 24 27 27 26 26 25 23 24 24 24 23 21 18 17 18 18 18 19 20 21 23 24 23 21 19 19 20 20 20 20 21 21 20 19 19 19 18 17 17 18 19 20 20 19 19 19 19 20
13 5 8 15 22 25 26 27 25 21 17 14 11 11 11 11 14 17 18 18 18 18 18 17 16 16 17 17 17 17 19 20 22 23 25 25 23 20 19 21 25 26 27 27 26 24 23 23 23 24 22 18 16 16 16 17 18 18 18 19 20 20 19 18 16 16 16 17 17 17 18 18 18 19 20 20 19 19 19 18 17 16 16 18 19 20 21
22 16 12 21 27 27 27 28 27 24 22 20 18 18 17 17 18 18 16 15 15 15 16 15 15 15 15 15 15 15 16 16 16 16 17 18 19 18 16 16 19 23 25 25 25 24 23 22 22 22 21 19 17 15 14 14 14 14 15 17 17 17 16 15 14 14 14 15 15 16 16 17 18 18 19 20 20 20 20 19 17 15 16 18 20 21 22
27 22 18 20 27 28 28 27 25 24 22 20 19 19 19 21 22 21 18 16 16 15 14 14 15 15 16 15 15 14 12 11 11 10 10 11 13 14 13 13 16 20 22 22 22 21 20 20 20 20 18 17 16 15 13 12 13 14 15 15 14 14 13 12 11 12 13 14 15 16 16 17 17 17 17 18 18 19 20 21 20 18 18 19 21 22 22
24 21 19 20 24 28 28 26 25 24 22 19 19 18 17 18 19 20 19 18 17 16 16 15 15 15 15 14 14 13 11 10 9 8 8 8 8 9 10 13 15 17 17 16 17 18 18 18 18 17 15 14 14 13 12 11 11 12 13 12 12 12 11 10 10 10 11 12 14 15 16 17 16 16 17 16 17 20 21 21 20 19 17 18 21 22 20
19 16 14 15 20 24 25 24 24 22 21 20 21 21 21 19 19 18 17 16 15 17 19 19 18 17 16 16 15 13 11 11 11 11 10 9 7 7 8 9 12 13 14 14 13 14 15 16 15 14 13 12 11 12 12 10 9 10 10 9 9 9 9 9 8 8 9 11 12 14 16 16 15 15 15 16 18 19 19 17 17 17 16 18 20 21 18
19 16 13 14 18 21 23 23 22 21 19 18 18 20 21 21 20 20 19 17 14 14 16 18 19 19 19 20 20 18 15 13 14 15 14 13 11 9 7 6 6 7 8 10 11 11 13 15 14 12 11 10 9 10 11 11 11 10 8 6 6 6 7 7 6 6 7 10 12 13 13 14 14 14 15 16 17 17 16 15 14 14 15 17 18 19 17
19 17 15 15 18 20 21 22 22 20 20 20 19 19 19 19 19 19 20 20 18 15 14 14 14 15 17 19 20 21 19 17 16 15 15 15 13 11 10 9 8 5 4 5 7 7 8 10 10 9 7 7 7 7 8 10 12 11 9 7 6 6 6 5 5 4 5 8 11 12 13 14 16 16 15 15 16 15 14 13 11 10 12 15 17 17 16
18 19 18 19 20 21 22 22 22 22 22 22 20 19 19 19 19 19 19 19 19 18 17 16 16 16 17 18 18 18 18 18 17 16 15 15 15 14 13 13 13 10 7 5 3 2 2 4 5 6 5 5 5 4 4 7 8 8 8 6 4 4 4 4 4 6 7 9 11 13 14 15 16 15 14 14 14 13 11 10 9 8 10 14 17 18 17
19 20 21 22 22 22 23 23 22 22 21 20 19 18 19 19 19 19 19 18 18 17 16 16 17 18 18 17 17 17 17 16 16 15 14 13 13 15 17 17 15 14 13 11 7 4 2 2 1 2 3 3 3 2 0 2 3 5 7 6 6 8 9 9 10 11 13 13 13 14 15 15 15 15 15 15 14 14 13 12 11 10 11 14 16 17 16
24 23 24 24 22 22 23 22 21 20 21 21 21 20 20 20 20 20 20 20 19 18 17 16 17 17 17 17 17 18 18 17 15 14 14 13 13 14 17 18 17 16 15 12 9 7 5 4 3 2 1 2 1 2 3 5 7 7 7 7 9 11 12 11 12 14 16 16 16 17 19 18 17 17 17 17 17 17 16 15 14 12 13 14 14 13 13
26 26 26 26 26 26 26 24 22 23 24 25 24 23 22 22 22 21 20 19 19 18 18 19 20 20 19 19 19 19 17 16 15 15 15 16 16 17 19 19 17 16 14 11 8 8 8 6 4 3 2 2 1 2 4 5 7 8 7 7 9 11 11 11 12 14 15 16 17 18 19 18 17 17 18 19 19 18 18 17 15 14 13 12 11 11 11
26 26 26 26 26 26 27 27 26 26 25 25 24 23 22 22 22 22 21 20 18 18 18 20 22 23 23 22 21 20 19 19 18 18 17 17 18 18 19 18 17 15 13 10 9 8 7 5 3 2 1 2 2 2 2 3 4 5 6 7 9 9 10 11 13 14 15 16 17 16 15 16 17 18 19 20 19 18 17 17 16 15 14 13 11 11 11
25 26 26 26 25 24 24 24 23 23 22 22 22 22 21 20 21 22 22 21 20 19 20 21 22 23 24 24 24 23 23 23 22 22 21 21 20 20 20 19 17 16 14 12 10 9 7 6 5 4 3 4 5 5 3 2 2 3 5 6 8 9 9 10 12 13 13 14 14 13 13 15 17 18 19 19 19 18 17 17 17 16 16 15 14 13 12
23 23 24 25 25 25 24 23 22 21 21 20 20 20 21 21 20 21 21 20 20 20 21 22 23 23 23 23 24 25 26 26 26 25 26 26 25 24 23 22 20 19 18 16 14 12 10 8 7 6 5 5 6 6 5 4 3 1 2 4 4 5 6 6 7 7 8 10 10 11 13 16 17 18 19 20 20 18 18 19 18 17 16 14 14 13 13
22 22 23 23 23 23 23 22 22 23 23 22 21 20 21 22 23 22 21 20 20 20 20 21 21 21 21 20 20 22 24 25 25 26 26 26 25 25 24 22 21 22 21 20 18 16 13 10 8 7 6 6 6 5 4 4 3 2 3 4 4 5 6 7 6 6 7 8 10 12 13 15 16 17 19 20 19 18 18 18 17 16 14 13 12 13 13
20 21 21 21 21 21 21 22 22 23 24 24 21 18 18 21 23 23 22 22 22 21 20 19 19 20 20 20 20 20 21 22 23 24 24 24 23 22 21 20 19 20 20 21 21 20 18 14 10 8 6 5 5 4 4 5 5 5 3 2 0 2 4 5 7 8 9 10 11 13 14 16 18 20 20 18 16 15 14 13 12 12 12 12 11 12 14
19 19 19 20 21 22 22 21 22 22 22 23 22 20 19 21 23 23 23 24 24 23 21 21 21 21 21 21 21 21 20 19 19 20 21 21 21 20 17 16 16 17 16 17 18 20 19 18 15 11 8 7 6 5 5 6 6 6 5 4 4 2 1 1 2 4 5 6 8 11 13 15 17 16 14 12 12 12 12 12 11 10 11 12 13 14 15
23 22 21 22 23 24 23 21 20 20 21 24 26 25 23 24 24 24 23 23 23 22 21 20 20 20 20 20 20 19 18 17 17 17 17 18 17 16 14 13 14 14 13 13 14 15 15 15 15 13 10 8 6 5 6 7 6 6 5 4 4 3 2 2 1 2 4 4 3 4 6 8 9 9 9 10 11 11 12 14 13 12 12 13 14 14 15
22 23 23 23 23 24 23 22 22 22 22 23 25 25 24 23 23 23 23 22 21 20 19 18 18 17 17 16 15 15 15 15 16 17 15 14 13 12 11 11 12 12 11 11 11 11 11 11 11 12 11 8 6 5 5 6 6 6 5 4 3 2 2 2 2 1 2 4 3 2 3 5 7 8 10 10 11 12 14 14 14 13 14 15 15 14 14
22 24 24 23 23 23 23 23 24 24 24 23 22 22 21 20 20 19 18 18 18 19 18 17 17 16 15 13 13 12 11 11 13 14 13 11 10 10 11 11 11 10 10 9 8 9 9 9 9 10 9 8 7 7 7 6 6 6 6 5 4 2 1 1 1 1 1 2 3 4 4 6 7 9 10 10 10 13 15 15 13 13 14 15 14 13 13
23 24 23 23 23 23 22 23 24 24 23 22 21 19 17 16 17 17 15 15 16 18 18 17 17 16 15 14 14 13 12 11 12 12 11 10 10 11 11 10 10 9 9 8 8 8 8 8 9 10 9 7 7 8 9 8 7 6 6 6 5 3 3 3 3 3 3 2 4 6 7 7 8 10 11 10 8 9 11 13 13 13 15 15 15 15 14
23 23 24 25 26 25 24 24 24 23 22 21 21 20 18 17 17 17 17 15 14 16 17 17 17 16 14 13 14 15 14 13 12 11 11 12 12 11 11 11 10 10 9 9 8 7 7 7 7 7 7 6 6 8 9 9 8 7 6 5 4 3 4 5 5 5 4 3 3 4 6 6 7 9 11 11 10 10 12 13 13 13 14 15 16 16 16
21 21 22 23 24 25 24 23 23 22 21 20 19 18 17 17 17 17 17 15 15 15 16 16 16 15 14 13 15 17 17 15 14 13 13 13 13 12 11 11 10 10 11 11 11 10 10 9 9 8 7 6 6 7 8 8 7 7 6 5 3 1 1 1 3 3 3 4 4 4 4 5 6 7 8 10 12 13 15 16 15 16 17 18 18 18 19
18 18 18 19 21 22 22 21 21 20 19 19 18 17 16 16 16 17 17 16 16 17 17 17 18 18 16 15 15 17 16 16 16 16 16 16 15 14 13 12 12 11 12 13 13 13 13 12 11 10 9 8 7 7 7 8 8 8 7 7 6 4 3 3 4 4 4 5 5 6 6 7 7 7 8 9 11 12 14 16 17 19 21 21 21 22 22
Wind_Direction
210 201 212 217 198 195 204 199 196 198 199 197 198 204 186 155 181 220 203 179 201 234 242 236 237 227 202 206 208 199 195 191 190 196 200 202 203 202 202 203 203 203 202 202 205 207 207 207 209 210 212 214 215 216 217 216 216 217 218 218 218 218 219 222 224 225 227 228 229 229 229 229 228 228 229 229 230 231 232 234 235 236 237 239 240 240 241
207 201 211 216 203 187 202 209 202 196 199 200 203 206 188 180 199 197 175 191 209 223 224 230 244 239 217 204 207 210 209 197 190 191 195 199 202 203 204 205 205 205 205 204 207 209 208 209 210 211 212 214 215 216 217 217 217 217 217 217 218 218 220 224 225 224 225 227 227 228 228 229 229 229 229 229 230 231 233 235 236 236 236 238 239 241 242
206 204 205 215 214 191 186 221 218 203 201 200 203 207 191 183 202 189 181 203 226 242 229 224 242 243 227 183 179 196 210 198 187 188 195 200 203 204 206 206 206 206 205 205 208 210 210 211 212 213 215 217 217 217 217 217 218 217 216 217 219 220 222 224 223 222 225 226 226 227 228 229 229 229 229 229 230 232 233 235 236 236 236 237 239 240 241
209 204 199 211 221 210 202 223 222 204 200 200 202 202 188 182 190 182 181 203 230 250 245 240 233 209 194 184 168 177 191 192 192 195 199 201 203 204 206 207 206 205 203 204 207 210 212 214 216 217 219 219 218 218 218 219 219 217 216 218 220 222 224 223 221 223 225 226 226 227 228 229 229 228 228 228 229 231 232 234 236 236 236 238 240 241 241
214 199 198 206 213 221 229 220 202 192 190 194 208 218 212 203 188 181 196 210 214 220 224 224 213 197 202 205 188 179 186 191 197 201 200 201 201 203 205 207 207 205 203 205 209 212 215 219 221 223 222 220 220 221 222 222 219 216 216 218 220 223 223 221 221 224 226 225 226 227 228 229 229 227 226 227 228 229 232 234 235 235 237 238 240 241 242
219 185 180 189 202 220 237 194 171 176 176 171 177 222 247 240 219 204 220 220 207 199 199 206 204 197 179 89 77 79 177 193 197 197 197 199 200 203 206 207 207 206 206 208 211 215 219 222 225 226 224 223 224 225 224 221 218 216 217 219 220 221 222 221 221 223 225 226 227 227 228 228 227 227 226 226 227 229 231 233 233 234 236 238 240 242 243
235 167 147 170 209 223 240 193 171 175 168 152 132 81 15 330 315 301 138 255 232 200 187 195 184 125 78 57 42 37 45 150 203 202 199 199 199 203 205 206 206 206 207 210 213 217 220 220 223 225 225 225 227 226 223 220 217 217 218 219 219 219 220 220 221 221 223 226 227 227 227 226 226 227 227 226 227 228 230 231 233 235 237 238 240 242 244
259 184 150 182 218 235 298 320 151 154 151 134 106 63 11 351 346 352 112 83 307 270 184 178 150 108 81 62 42 36 42 46 53 205 214 209 204 205 206 207 208 207 208 210 214 217 219 218 221 224 225 226 226 226 223 220 218 219 218 218 219 219 219 220 220 221 222 225 226 226 225 225 225 226 227 227 228 228 230 232 233 235 236 238 240 241 243
242 198 158 171 197 256 326 337 86 164 164 149 126 97 359 346 352 342 119 84 19 359 9 129 134 108 81 58 30 24 31 38 44 50 53 212 211 214 215 214 212 209 209 212 215 217 218 218 220 222 224 225 225 225 224 221 220 219 218 218 219 220 220 220 220 221 222 223 225 225 224 224 225 226 226 227 228 228 230 231 233 235 236 237 239 240 242
259 181 154 123 142 192 247 248 257 268 135 140 128 108 17 333 350 350 89 80 55 54 26 13 129 106 75 55 6 13 23 28 31 41 52 64 133 212 222 221 220 218 218 220 221 220 218 218 221 224 225 224 224 223 223 222 221 220 219 220 221 221 222 222 221 221 221 222 224 224 224 224 224 225 225 226 228 228 230 232 233 235 236 237 238 239 241
268 197 166 145 159 208 220 212 242 102 123 122 103 89 354 297 333 347 57 83 63 70 60 47 86 96 79 120 301 6 28 34 30 34 45 58 81 108 154 204 220 225 228 232 234 232 227 224 224 226 227 227 225 224 224 224 222 220 221 224 224 225 226 226 223 222 221 221 223 223 224 224 224 225 225 225 227 228 230 232 234 235 236 236 237 239 240
229 205 174 161 178 220 202 182 160 135 131 108 88 109 218 253 313 353 54 77 62 72 76 64 64 77 109 160 221 23 38 41 40 42 40 49 76 97 108 130 187 227 235 238 239 240 238 234 230 230 231 231 229 228 229 226 223 223 226 229 230 230 229 227 224 222 221 221 221 222 223 224 224 224 225 224 225 226 228 230 232 234 235 236 237 238 240
218 199 166 143 218 241 203 205 185 135 124 107 116 180 202 187 109 53 70 82 74 71 76 76 81 95 108 116 76 50 49 45 49 53 49 50 65 78 93 106 108 298 283 265 246 240 242 240 237 235 234 233 233 234 232 228 226 229 232 233 233 231 229 226 224 223 221 221 220 220 221 223 223 222 223 224 224 224 226 228 229 231 233 234 236 237 239
262 196 140 124 198 257 343 345 39 97 119 178 201 156 122 115 100 72 70 76 77 76 77 82 94 98 88 76 61 49 44 41 43 45 44 53 60 57 66 68 36 286 294 295 284 257 241 239 241 240 237 235 235 234 232 230 232 235 234 233 231 230 228 226 225 223 221 220 219 217 216 219 220 220 221 221 221 223 224 225 227 228 230 232 233 235 237
309 342 58 98 135 307 320 324 358 48 112 167 144 116 105 102 93 84 76 69 73 79 77 74 77 74 62 57 51 41 36 33 31 27 22 28 31 32 39 39 31 13 331 315 310 298 276 256 249 246 242 239 236 232 230 232 234 234 232 231 230 228 226 225 224 223 221 218 216 213 212 215 217 218 217 217 217 220 222 223 224 225 226 228 230 232 233
334 352 0 45 280 301 307 299 166 87 114 135 128 117 109 101 96 94 87 78 81 87 83 76 69 61 52 46 39 33 30 25 21 15 6 3 4 5 8 10 16 16 352 322 311 305 297 286 274 261 251 245 239 234 232 232 232 229 228 227 226 225 225 224 223 221 218 215 212 209 209 211 214 215 214 213 214 217 220 221 221 221 222 224 226 228 230
319 260 296 323 314 320 338 27 99 99 105 118 119 113 108 104 104 104 98 94 94 94 93 88 76 64 54 44 34 28 23 18 16 13 2 351 347 348 349 347 350 357 343 311 298 293 287 280 274 270 263 252 244 239 236 234 230 227 226 226 225 224 223 222 220 217 213 209 206 204 205 209 212 211 210 209 211 214 216 217 218 218 219 221 223 226 228
313 265 308 332 330 348 15 38 73 97 105 111 111 108 104 101 102 104 103 103 103 100 101 97 87 78 70 61 50 37 23 14 10 9 3 350 339 333 325 313 311 311 287 265 261 257 249 239 236 243 249 248 244 241 238 234 231 227 225 224 223 222 220 217 214 210 205 200 198 199 203 207 208 207 206 208 210 211 211 213 216 217 218 219 220 223 227
339 313 333 331 330 8 33 39 50 72 91 102 105 104 104 103 103 102 102 102 102 100 100 98 92 87 80 73 67 57 43 29 15 8 7 359 338 325 315 299 288 277 261 251 248 240 228 217 212 216 222 227 231 231 229 227 227 225 224 223 220 217 214 211 206 201 196 192 191 194 197 199 200 202 205 206 207 207 207 210 212 214 215 216 216 219 222
336 267 298 313 335 24 43 50 53 54 70 91 100 104 107 107 105 103 102 102 100 96 95 96 94 89 83 80 76 70 63 57 43 27 18 7 345 326 317 303 284 269 257 250 249 246 239 230 221 216 216 218 218 216 213 211 211 210 210 212 212 209 204 199 194 191 189 189 189 190 191 192 194 197 200 202 204 205 206 206 204 204 207 210 213 216 217
288 248 288 311 347 27 32 40 55 63 70 86 97 105 108 107 105 103 100 98 98 96 94 95 94 89 83 80 79 75 70 66 61 55 46 29 12 356 347 335 308 285 266 247 236 228 222 229 232 228 224 222 217 213 210 208 206 204 199 195 195 196 194 188 184 184 185 187 187 187 187 187 189 190 192 196 200 200 199 198 198 199 202 205 209 212 212
288 229 320 342 19 41 13 20 45 67 80 90 95 99 102 102 103 103 100 96 94 94 92 92 92 88 82 79 78 74 69 65 64 63 59 50 40 34 32 23 3 338 314 279 254 234 217 227 237 237 235 233 227 224 220 213 208 207 203 192 182 179 182 181 180 180 180 180 181 181 181 182 182 182 183 186 189 190 189 190 194 198 201 202 203 204 207
290 199 60 38 50 59 28 35 52 64 70 84 93 95 97 99 100 101 101 98 95 93 92 90 89 87 84 80 78 75 70 68 68 66 64 59 51 45 44 43 36 30 24 350 289 259 234 228 232 233 233 233 228 222 216 207 201 203 204 195 183 177 177 175 175 177 175 172 172 172 172 174 178 177 176 176 180 185 190 190 191 193 195 196 198 199 201
278 144 105 83 74 66 54 62 73 70 58 65 80 88 94 97 98 98 98 98 96 94 93 89 87 86 85 82 80 78 75 72 70 69 68 66 61 58 58 57 53 48 47 49 51 3 233 224 222 220 214 217 224 220 213 206 200 195 191 186 180 179 181 181 181 181 176 169 166 164 164 168 173 175 175 176 177 180 184 185 185 186 188 191 192 191 194
199 134 120 108 101 95 84 84 87 82 67 61 68 81 92 97 98 98 97 96 94 93 92 90 87 85 84 81 79 78 77 74 72 70 69 67 63 61 61 61 61 59 58 60 66 71 91 186 206 189 151 145 175 188 189 193 195 188 181 181 182 180 179 181 181 177 170 164 161 159 160 164 172 178 181 180 178 176 174 175 178 182 184 187 187 185 187
170 141 128 119 116 114 106 96 88 80 76 74 71 76 88 95 97 98 97 96 95 93 90 90 89 87 85 82 79 77 76 74 75 75 72 68 63 60 60 63 66 70 74 75 75 77 87 94 88 86 96 121 150 155 154 163 179 180 176 180 181 173 167 166 165 161 157 155 153 153 157 163 171 180 186 188 185 180 174 172 176 180 183 185 186 186 186
168 151 135 119 117 122 119 108 97 85 77 79 77 77 83 90 95 98 97 96 95 93 90 89 88 88 87 85 81 78 75 73 72 72 72 71 68 65 66 70 71 72 75 77 77 80 85 87 88 91 92 100 122 131 131 138 154 158 156 156 158 155 152 151 150 147 146 147 149 152 156 161 166 173 180 184 186 187 185 183 181 181 182 183 185 184 180
147 177 191 160 129 126 122 114 107 98 82 71 76 87 93 95 94 94 92 91 91 92 90 90 90 89 87 85 83 81 78 74 71 69 69 71 73 72 73 75 76 75 73 70 72 79 83 83 88 94 95 101 115 117 111 115 126 132 135 138 139 139 137 136 137 140 143 145 150 155 158 159 161 165 169 172 176 183 190 190 186 183 182 181 179 176 171
63 89 167 145 126 121 119 114 109 104 96 90 94 101 106 105 97 90 88 88 87 86 86 86 87 87 87 86 84 81 79 75 72 70 71 72 74 75 75 77 81 83 80 72 67 72 79 83 88 93 95 103 116 117 113 118 122 123 125 126 124 123 124 124 126 134 141 145 151 158 162 163 164 166 170 175 178 180 183 183 183 184 182 179 176 174 172
65 64 95 120 118 113 110 109 108 106 101 97 95 91 90 92 91 88 88 87 83 82 83 83 81 80 79 80 79 79 78 77 76 77 76 73 71 72 75 80 82 82 79 73 67 67 71 75 78 83 89 96 100 97 97 106 112 115 118 119 116 115 119 124 130 138 145 150 156 162 166 167 169 172 175 180 182 182 179 176 176 179 179 179 180 181 180
68 57 57 86 101 99 95 96 102 105 105 102 96 88 82 81 80 81 84 84 82 82 81 79 76 72 66 63 64 67 72 82 91 95 92 82 73 68 70 79 81 75 71 71 69 69 72 73 69 68 73 82 86 85 86 93 103 113 119 118 115 113 114 119 131 143 153 161 166 167 167 168 172 177 180 183 184 182 176 171 172 175 178 180 183 185 187
68 57 46 59 79 86 86 86 89 92 94 93 90 87 85 82 78 75 75 78 81 82 79 73 70 67 61 58 59 61 69 83 97 106 106 103 95 82 79 84 84 81 80 79 74 69 71 72 69 66 67 71 78 84 88 94 105 117 123 124 121 115 111 109 116 130 147 158 162 163 164 166 169 174 178 178 176 173 168 165 167 170 173 180 186 189 189
85 78 67 69 78 83 87 88 88 88 88 85 82 81 84 85 82 76 72 74 80 82 79 75 73 69 66 64 64 68 80 90 88 83 85 92 97 100 104 103 97 92 91 89 83 75 71 68 67 71 74 75 80 87 93 100 110 117 122 124 117 110 108 106 106 117 139 153 156 156 156 157 160 167 170 166 164 163 162 161 164 169 175 184 193 196 195
108 108 112 109 100 95 94 94 93 93 94 91 86 82 80 80 79 77 76 78 86 88 82 77 74 71 69 66 64 66 76 84 80 74 71 70 71 73 82 96 110 115 110 107 105 95 77 65 60 64 74 86 95 97 100 110 119 121 123 128 124 115 114 113 111 120 144 156 158 156 154 156 164 173 172 163 156 155 158 161 167 176 183 189 195 200 202
111 112 113 110 105 104 106 106 104 101 98 94 88 83 78 77 77 77 76 78 83 87 86 80 75 73 70 68 65 65 67 70 72 72 71 70 72 73 70 69 75 94 135 146 139 118 84 63 49 40 51 80 98 102 109 119 124 127 131 136 136 129 126 126 129 141 157 167 170 168 166 169 175 180 177 167 158 156 161 168 173 180 187 189 191 195 198
104 105 101 97 97 100 104 105 104 101 98 94 91 87 83 81 80 80 80 82 84 88 89 87 84 81 78 75 72 71 70 69 70 72 74 76 81 86 84 77 74 76 83 96 117 131 111 75 48 30 34 62 77 86 111 119 125 139 154 158 159 170 181 193 199 195 190 188 188 186 184 183 184 184 182 177 172 170 174 180 185 188 187 187 188 190 192
98 101 98 94 93 95 96 97 96 95 92 91 90 88 85 82 82 82 82 83 83 85 86 84 82 80 79 78 76 76 76 76 74 75 78 80 84 87 85 80 76 75 74 72 72 78 109 138 101 36 25 35 35 22 99 146 161 180 181 179 183 190 196 206 214 207 196 190 192 198 200 197 196 195 194 192 192 190 190 193 199 195 185 183 187 190 191
92 92 91 88 87 89 91 91 91 89 87 86 87 86 85 84 83 82 81 81 81 82 82 81 80 81 81 80 79 80 82 82 82 83 85 85 84 82 78 72 67 66 68 71 77 84 97 129 165 204 313 345 336 276 244 221 216 217 211 196 191 193 197 204 211 208 200 196 199 207 209 204 200 201 206 208 206 202 197 196 198 194 184 182 187 191 191
87 87 85 84 83 84 86 87 87 86 85 85 84 83 83 84 83 82 82 81 79 78 78 79 79 78 78 77 78 78 78 78 78 79 82 82 82 80 76 70 64 62 65 71 77 80 85 106 151 199 275 336 338 240 226 207 206 217 222 212 203 204 210 216 216 213 211 210 211 216 222 222 214 209 210 210 206 200 193 190 193 194 190 187 191 194 193
86 86 86 87 87 86 86 86 86 85 84 83 81 80 80 82 82 81 81 80 77 75 75 77 76 75 75 75 76 76 74 72 71 72 75 78 79 78 74 67 57 52 56 62 69 72 71 75 105 149 148 99 111 153 204 203 201 215 225 220 215 218 227 234 233 232 234 233 227 224 229 230 219 209 207 204 198 191 188 188 191 194 193 191 193 195 192
86 85 85 87 89 89 89 87 83 80 77 75 75 76 77 80 80 77 76 78 78 75 73 74 75 76 76 76 77 77 75 72 70 69 69 69 69 68 65 58 48 42 44 51 58 61 58 54 62 77 96 112 112 107 106 128 169 212 225 223 226 233 239 242 240 240 243 244 237 226 220 216 208 199 196 194 192 192 193 192 191 191 191 190 190 189 184
85 85 85 84 82 84 86 85 81 77 74 71 70 70 72 76 80 79 77 77 78 77 76 76 77 77 77 76 77 76 74 71 70 69 68 65 64 63 63 61 56 50 49 49 50 49 51 61 75 81 83 99 107 104 106 117 130 152 167 168 186 210 218 219 225 233 242 244 230 210 203 205 204 198 193 192 193 192 190 187 186 186 186 185 186 186 182
83 85 86 83 78 77 78 78 76 74 73 71 70 70 72 76 79 78 76 76 79 81 82 81 78 75 75 75 77 77 74 71 70 69 67 65 63 61 60 59 58 55 53 51 50 49 52 62 74 77 75 83 94 98 102 103 96 95 127 141 156 184 195 197 199 201 207 211 203 195 197 204 206 201 197 195 192 187 185 187 191 191 184 179 182 186 185
86 87 83 78 75 76 79 78 75 72 70 68 69 74 80 81 78 76 76 80 82 84 85 84 80 77 78 80 82 81 78 73 69 66 65 64 62 57 53 52 52 51 50 49 48 49 51 52 52 50 50 56 69 82 84 70 57 51 52 45 324 230 222 223 218 207 201 198 195 194 196 198 198 196 193 187 183 184 190 196 198 191 181 179 184 189 190
87 89 83 77 76 77 78 76 74 73 71 69 71 80 89 88 83 80 79 79 79 78 80 80 77 75 78 83 85 84 81 74 67 62 60 60 57 53 49 49 49 49 49 51 51 50 48 45 44 45 45 43 46 59 68 59 45 41 42 37 23 12 353 287 230 207 202 205 205 204 204 203 205 209 206 191 179 183 191 193 190 189 191 194 194 192 191
84 85 84 82 80 78 76 74 74 75 74 72 74 80 87 90 88 86 83 82 81 80 79 77 72 70 73 79 82 84 83 80 73 68 66 65 61 56 52 51 50 49 51 56 56 51 44 41 42 44 47 46 42 45 54 50 35 24 27 37 35 27 26 26 55 125 133 136 158 209 227 222 215 208 197 184 178 182 188 191 196 203 204 198 193 191 194
81 81 81 82 82 80 78 78 77 75 72 70 70 73 78 83 85 84 84 83 83 81 80 77 73 70 70 72 75 77 77 74 70 68 67 68 65 59 52 48 47 46 49 53 52 45 39 34 32 33 39 49 57 61 68 69 58 40 32 32 33 32 29 13 352 341 153 146 143 172 213 207 195 188 189 196 203 202 198 196 200 203 200 196 194 195 197
81 81 81 81 81 79 78 78 77 75 73 72 71 71 73 76 77 76 76 75 72 70 71 73 70 67 66 68 70 68 65 62 63 64 61 57 55 53 49 44 39 34 32 33 34 30 25 18 12 11 18 34 49 53 53 56 60 63 67 67 61 58 69 65 40 59 155 211 229 214 191 183 187 192 197 204 210 207 203 203 204 204 202 204 208 211 209
85 84 82 80 77 76 76 78 79 79 78 75 73 72 72 72 68 65 62 60 59 61 63 63 58 56 57 59 61 59 54 51 53 55 49 43 43 43 38 31 26 22 21 23 25 21 11 1 359 360 1 8 27 39 41 40 43 55 72 83 85 91 112 136 155 168 175 198 218 210 200 197 198 197 194 192 192 197 204 209 210 210 211 215 219 221 222
84 83 79 75 74 75 77 77 75 73 71 70 69 67 65 62 60 56 50 47 52 61 67 66 60 54 48 41 37 37 36 32 30 28 27 28 31 32 26 21 22 26 29 32 33 26 11 358 357 360 356 356 12 31 41 45 44 42 49 65 85 108 123 137 155 173 180 183 188 188 189 195 202 205 208 212 217 218 217 219 220 223 227 229 229 229 230
77 77 77 75 75 77 78 76 71 67 66 66 67 64 61 61 63 62 58 57 61 68 71 71 68 66 63 53 42 36 32 28 25 24 24 25 26 24 20 17 20 27 32 33 31 25 18 12 11 10 7 3 7 16 24 29 30 30 31 35 34 8 272 209 192 181 175 181 186 181 176 182 190 198 208 219 225 226 226 225 225 227 233 237 237 235 236
72 75 79 79 78 78 76 72 70 70 69 67 65 62 60 61 63 62 61 62 65 66 68 69 70 73 76 75 64 54 47 41 34 29 29 31 32 27 19 13 12 16 22 24 21 15 11 9 7 6 6 7 10 12 11 12 16 21 24 26 27 22 354 305 285 280 274 259 244 235 228 221 213 209 212 216 218 220 222 222 221 223 228 230 228 224 224